Temp
22 22 22 22 26 27 27 27 28 27 27 26 27 26 24 25 26 26 22 21 22 21 21 21 21 21 21 21 21 21 21 21 21 21 21 21 21 21 21 21 21 21 21 21 21 21 21 21 21
22 22 23 25 28 28 26 28 28 28 26 28 26 24 24 24 24 22 22 21 22 22 22 22 21 21 21 21 21 21 21 21 21 21 21 21 21 21 21 21 21 21 21 21 21 21 21 21 21
23 23 26 27 28 28 27 28 26 25 26 26 23 24 22 25 22 22 22 22 21 21 21 21 21 21 21 20 21 21 21 21 21 21 21 21 21 21 21 21 21 21 21 21 21 21 21 21 21
23 25 26 29 29 28 28 28 27 26 25 24 24 24 25 24 23 22 21 20 21 21 21 21 21 21 21 21 21 21 21 21 21 20 20 21 21 21 21 21 21 21 21 21 21 21 21 21 21
23 25 29 29 28 29 29 29 28 27 25 25 26 25 24 24 23 22 21 21 22 22 21 21 21 21 21 21 21 21 21 21 21 20 21 21 20 21 21 20 20 21 21 21 21 21 21 20 21
26 26 30 29 28 28 29 28 29 28 27 27 26 26 24 23 23 22 22 22 22 22 21 22 21 21 21 21 20 21 21 21 21 21 21 21 20 20 21 21 20 21 21 21 21 21 20 21 21
27 28 30 29 28 28 28 30 29 28 27 27 28 26 25 24 23 23 22 22 22 22 22 22 22 21 21 21 21 21 21 21 21 21 21 21 21 20 20 21 21 20 21 21 21 21 22 22 22
27 29 30 30 30 29 30 30 29 29 27 29 28 26 25 24 23 22 22 22 22 22 22 21 21 22 22 21 21 21 20 21 20 21 21 21 21 21 21 21 21 21 21 21 20 21 22 22 22
28 30 30 30 30 30 30 29 29 29 28 28 28 27 27 23 23 22 21 21 21 21 22 22 22 21 21 21 21 21 21 21 21 21 20 21 22 21 21 21 21 21 21 21 20 21 21 22 22
29 31 31 32 32 31 30 30 29 28 28 27 26 25 24 22 22 23 23 23 23 22 22 22 22 22 21 21 21 21 21 21 21 21 21 20 20 20 21 21 21 21 21 21 20 21 22 22 22
29 31 31 32 32 32 31 30 30 28 28 28 27 25 25 24 23 24 25 24 24 23 22 22 21 21 21 21 21 21 21 21 21 21 21 21 20 21 21 22 22 22 21 22 22 21 22 22 22
29 31 32 32 32 31 30 31 30 30 31 31 28 26 25 26 25 25 25 24 24 23 23 22 21 21 21 21 21 21 21 21 21 21 21 21 21 20 20 21 21 21 22 21 21 21 21 21 22
30 32 32 33 32 32 31 31 31 30 30 30 28 26 26 27 26 25 25 25 23 23 23 22 21 21 21 22 21 21 21 22 21 21 21 20 20 21 21 21 21 21 21 21 21 21 21 21 21
33 33 33 33 32 32 31 31 31 31 29 27 27 26 27 27 26 25 25 24 23 23 23 23 22 22 22 23 23 22 22 22 21 21 22 22 21 21 21 21 21 21 21 21 21 21 21 21 21
34 33 33 32 32 32 32 30 30 30 29 27 27 27 27 27 26 26 26 25 24 24 24 23 23 22 24 23 24 22 22 22 23 22 22 22 22 21 21 21 21 21 20 20 21 21 21 21 22
34 33 32 32 32 31 32 32 32 29 29 28 27 27 26 27 26 26 26 25 25 24 23 23 23 23 24 24 24 24 24 23 23 23 23 23 22 22 22 21 21 21 21 21 20 21 22 21 22
32 32 32 32 32 32 32 32 32 30 30 29 28 27 27 27 27 26 26 26 26 25 24 24 23 24 24 25 24 24 24 24 24 23 23 23 23 22 22 21 21 22 21 21 21 21 21 22 22
32 32 32 32 32 32 32 32 30 29 30 29 29 28 28 28 28 27 26 26 26 25 24 25 24 24 25 25 24 24 23 24 24 23 24 23 23 23 22 22 22 21 21 21 21 22 21 22 22
33 33 33 32 31 32 32 33 32 29 29 29 30 29 29 29 29 28 27 26 26 25 24 24 24 24 23 22 23 23 23 23 23 23 24 24 24 23 23 21 21 21 21 23 23 22 22 22 22
33 33 34 31 30 31 31 32 32 30 29 30 30 29 29 29 29 28 27 27 26 25 24 24 24 24 25 24 24 24 24 23 23 24 24 24 24 24 23 23 22 22 23 23 22 22 22 22 21
33 34 34 33 30 29 30 31 30 29 29 30 30 30 30 30 29 29 29 28 27 26 25 24 25 25 25 24 23 22 22 23 23 24 24 25 24 24 24 23 22 23 23 22 22 23 21 22 22
34 33 33 31 32 32 30 33 31 29 28 29 30 30 31 30 30 30 30 28 28 27 26 25 24 25 26 25 23 23 24 25 25 24 24 25 24 24 24 24 24 23 23 23 23 22 22 22 22
34 32 32 31 31 31 30 31 33 29 29 30 30 31 31 31 31 31 31 29 29 28 27 25 25 25 25 25 24 24 24 25 23 24 25 25 24 24 24 24 24 24 23 22 23 22 22 21 23
31 31 31 30 30 32 32 33 35 31 31 33 32 31 32 32 32 32 31 30 29 28 27 26 24 26 24 25 25 24 24 24 23 24 23 24 24 24 24 24 24 23 23 23 23 23 23 22 21
32 34 33 33 32 33 29 31 35 34 33 34 34 33 32 32 32 32 32 30 29 27 26 26 24 24 25 24 25 25 24 23 25 25 25 24 23 23 24 23 23 23 24 24 23 23 22 22 22
33 34 33 32 33 33 28 32 36 34 34 34 34 35 34 32 32 32 31 30 29 27 27 26 24 24 24 24 25 26 25 24 24 24 24 25 24 23 24 23 24 23 23 23 23 23 22 22 21
31 32 34 32 28 31 33 33 34 37 36 33 34 33 33 32 32 32 32 30 29 28 27 26 25 24 24 24 25 24 25 24 24 25 25 25 24 24 24 24 24 23 23 23 23 22 22 23 23
33 33 32 31 31 31 33 32 35 36 37 37 35 33 34 33 32 32 32 31 30 29 28 27 26 25 25 25 25 25 24 24 25 26 25 25 24 24 24 24 24 23 23 23 23 23 22 23 22
31 32 31 33 32 34 33 35 37 36 38 38 36 35 34 34 32 32 32 31 30 29 28 27 26 26 25 25 25 25 24 24 24 25 25 25 24 24 23 23 24 23 23 23 23 23 22 23 23
35 35 35 34 33 31 32 34 39 38 38 36 36 35 34 35 34 32 32 31 30 28 28 28 26 27 26 25 25 25 24 24 24 24 25 25 24 24 23 23 23 23 23 23 23 22 23 22 23
Height
769 770 771 771 787 783 799 800 785 796 798 791 795 799 805 803 806 817 811 813 817 821 825 828 829 830 831 832 833 834 834 836 837 838 838 839 841 842 842 843 843 843 844 845 846 847 848 849 850
769 770 770 768 783 793 806 789 795 789 791 790 796 801 806 810 803 808 813 816 819 823 827 829 831 832 833 835 835 835 836 837 838 839 840 841 843 844 844 845 845 846 847 848 850 851 852 852 853
769 768 768 773 782 793 801 790 792 793 791 792 804 803 807 806 808 809 811 816 821 825 829 831 833 835 835 837 837 837 837 838 839 840 841 843 844 845 846 847 848 849 849 851 853 854 855 856 857
769 769 770 778 788 785 785 784 787 792 794 794 800 808 805 805 808 810 812 816 820 826 830 832 834 835 836 838 838 838 839 840 841 841 842 843 844 846 848 849 850 851 852 853 855 857 858 859 860
769 769 778 784 790 784 778 780 782 791 793 796 795 807 807 808 809 811 815 820 822 827 831 834 835 836 837 839 840 840 841 841 840 842 843 844 845 847 849 851 852 853 854 856 858 860 861 861 861
771 772 783 794 793 785 780 780 782 786 791 791 797 799 808 810 811 814 818 822 825 828 832 835 836 837 838 839 840 841 842 842 842 843 843 844 846 848 850 853 854 855 857 858 860 861 863 863 864
771 777 784 787 793 790 785 775 782 786 791 793 789 804 808 810 812 814 819 823 826 829 833 835 838 839 839 840 841 842 843 843 843 843 845 846 847 849 852 854 856 858 859 860 862 863 865 866 866
767 771 781 781 787 792 777 778 778 782 791 786 789 803 808 807 812 815 820 824 827 830 833 836 838 840 841 842 843 844 844 844 845 845 847 848 849 851 852 855 857 859 861 862 864 865 866 868 868
764 776 783 781 783 783 774 782 780 780 786 787 789 792 796 806 811 815 820 823 827 830 833 836 837 840 841 843 844 845 846 847 847 848 849 849 852 853 855 857 859 861 862 863 865 866 868 869 870
768 774 774 762 765 774 774 778 781 787 789 792 795 796 800 806 811 812 816 820 825 828 831 834 836 839 841 843 844 846 847 848 848 849 850 851 852 854 857 859 860 862 864 865 866 868 869 871 872
767 773 764 761 760 763 773 778 776 785 793 785 791 795 800 804 808 811 813 817 820 824 828 831 835 837 840 842 844 846 846 848 849 849 850 851 853 856 858 860 862 863 865 866 867 868 870 870 872
772 760 758 757 759 766 774 771 777 778 777 775 785 790 797 800 803 806 810 814 818 821 824 828 832 834 838 840 842 845 846 847 848 850 851 852 854 855 858 860 862 863 865 866 868 869 870 871 872
766 757 754 752 758 761 766 773 775 778 774 777 785 792 795 798 802 807 812 814 816 819 822 825 828 831 835 837 840 843 845 846 848 849 851 853 854 855 857 859 861 863 864 866 867 869 870 871 872
753 754 756 757 761 763 771 774 774 774 777 782 787 792 793 795 799 805 811 813 816 819 822 825 827 830 833 835 838 841 843 845 847 848 849 851 853 854 856 858 860 862 863 865 866 867 869 870 871
751 764 761 765 765 770 768 784 779 773 776 783 788 790 794 796 799 801 805 810 814 817 821 824 826 829 831 834 837 840 842 844 844 846 847 849 850 852 854 856 858 860 861 863 864 866 867 869 870
762 765 783 769 766 768 769 786 768 770 775 781 784 788 792 794 796 801 803 806 811 815 818 821 825 828 829 832 835 838 839 841 842 843 845 846 848 850 852 854 856 857 859 861 863 865 866 867 868
771 789 783 779 765 766 770 776 766 767 770 777 780 784 786 792 795 797 801 803 806 811 815 819 822 825 827 830 833 835 837 838 839 841 842 844 846 848 849 851 853 855 857 858 860 861 863 864 865
784 783 779 780 770 768 771 771 769 769 770 773 775 780 784 784 785 791 795 801 805 808 811 815 819 822 825 828 830 833 835 835 837 839 840 842 844 845 847 849 850 852 854 856 857 857 859 861 862
764 773 775 770 767 771 768 765 765 768 771 773 773 776 777 777 780 787 792 797 801 806 808 811 815 818 822 825 828 831 832 834 835 837 838 839 841 843 845 847 848 850 851 853 854 856 857 859 859
763 771 771 770 771 772 772 765 757 762 763 762 766 769 770 775 778 781 786 792 795 799 803 807 810 814 818 822 824 828 830 832 834 836 836 837 839 841 843 844 846 848 849 850 851 853 855 857 858
765 769 769 774 774 773 777 770 763 761 758 760 761 761 765 768 771 775 778 783 789 793 795 800 805 808 813 818 821 825 828 830 832 832 833 835 836 839 841 843 844 846 848 849 850 852 854 855 856
770 757 762 772 777 787 775 786 764 761 763 759 756 756 755 760 763 767 771 776 780 783 790 795 799 803 809 813 818 821 824 826 828 829 831 833 835 838 840 840 841 842 845 849 850 851 852 853 854
763 757 764 772 776 781 782 788 758 762 763 755 749 746 747 747 751 757 762 766 771 778 783 788 793 798 803 808 813 817 821 824 826 827 829 831 833 834 837 838 839 841 845 847 849 850 851 853 855
756 764 770 775 780 789 773 775 752 760 746 736 734 736 737 740 744 748 754 761 767 773 779 784 789 792 798 802 808 813 816 821 825 826 827 829 830 832 834 836 838 840 842 845 847 847 850 851 853
758 764 789 792 794 788 782 782 745 732 729 724 722 721 724 730 736 740 747 753 759 767 772 777 782 787 793 798 802 807 812 818 822 825 824 826 828 829 832 835 838 839 840 841 844 845 847 849 851
758 758 778 806 794 781 786 776 741 719 715 713 712 709 712 721 725 731 736 743 750 757 764 769 774 780 786 793 797 802 808 814 818 821 823 824 826 828 830 832 835 836 837 840 841 843 846 847 848
764 773 751 774 793 788 766 753 726 707 710 714 710 711 712 713 717 721 728 736 743 749 756 762 768 774 780 786 792 798 804 809 813 816 820 821 823 825 827 829 831 833 835 837 839 841 842 843 845
744 741 771 774 796 798 771 770 750 723 711 707 709 708 705 707 713 717 723 729 735 742 748 756 762 766 773 782 787 793 800 805 809 813 817 819 821 823 825 826 829 831 833 835 837 838 840 840 842
754 756 762 756 764 773 777 755 713 714 703 700 702 698 698 700 705 709 714 722 728 736 743 749 756 764 770 777 783 788 794 801 804 808 813 816 819 821 823 825 827 829 831 833 834 836 837 837 839
722 732 735 757 767 769 765 751 697 697 694 697 696 694 693 693 699 705 710 718 725 731 739 744 750 756 761 769 774 782 789 796 801 804 808 812 816 818 821 823 825 827 829 831 833 834 834 836 837
Wind_Speed
11 8 4 1 1 4 5 5 11 13 10 0 11 2 3 3 1 2 10 12 22 20 16 14 13 14 13 12 12 12 12 13 13 13 13 15 14 13 13 12 14 17 18 19 20 21 21 21 20
9 3 1 1 1 3 4 9 14 7 9 16 8 8 3 1 3 10 15 17 21 20 16 15 15 14 14 13 13 12 11 12 12 12 13 13 13 13 13 13 12 15 17 17 19 19 18 18 18
5 1 1 2 2 3 6 10 11 13 7 7 4 5 3 1 4 19 10 23 20 19 16 15 16 14 14 13 12 12 10 11 12 11 13 13 13 13 13 13 13 13 14 17 17 16 16 16 16
1 1 2 4 9 6 7 13 17 15 5 7 3 7 4 5 12 7 24 23 22 17 15 14 14 13 13 11 11 11 11 11 11 10 12 13 14 14 13 13 13 13 13 14 14 14 13 13 15
1 1 3 6 9 4 10 14 10 6 6 8 9 7 5 8 7 17 23 20 21 18 15 13 13 12 11 11 9 10 9 10 10 10 12 14 14 14 13 13 14 14 14 14 14 14 12 10 9
2 1 4 6 7 8 9 14 10 7 9 11 7 12 5 8 15 22 20 19 17 18 15 14 13 11 10 10 9 10 8 8 9 11 12 15 15 14 14 13 13 15 14 15 14 13 10 8 8
1 1 3 6 8 6 7 10 7 8 10 6 15 7 7 9 17 23 19 18 17 16 14 13 12 10 9 9 8 8 8 7 8 11 13 15 14 14 13 13 13 14 15 14 14 12 11 10 10
1 1 3 3 5 5 11 7 7 6 5 13 9 6 10 12 20 21 19 18 16 15 14 13 12 10 10 8 8 7 7 6 7 8 14 13 13 13 13 13 13 14 14 14 12 12 11 11 12
1 1 3 3 5 6 13 6 5 5 11 5 3 6 17 23 22 22 19 16 15 14 14 13 13 11 10 9 8 7 6 6 7 8 9 12 12 12 12 11 13 12 14 13 11 10 9 9 9
2 1 2 4 6 8 14 9 9 6 12 7 8 15 26 26 22 24 24 20 19 18 16 15 14 13 11 9 8 8 7 6 5 7 8 10 10 11 12 11 13 11 11 11 10 9 7 6 5
2 2 2 5 7 13 13 9 6 12 8 10 14 20 22 23 22 21 23 23 23 20 17 17 15 14 12 10 9 8 9 8 6 7 7 11 10 10 11 10 11 10 10 9 8 6 4 3 3
2 7 5 7 9 12 14 10 8 13 2 13 18 22 22 20 21 23 23 22 21 20 20 18 17 16 14 11 9 8 9 9 8 7 8 10 10 10 10 10 10 11 10 10 8 6 5 4 2
4 2 7 10 13 13 13 13 6 12 2 16 19 21 21 19 21 19 18 18 20 20 20 20 19 18 16 15 10 9 9 9 8 9 8 8 8 9 9 10 10 10 9 9 8 6 5 4 3
5 4 5 6 9 10 12 7 3 7 12 17 19 20 20 20 23 20 18 18 18 17 19 18 19 18 17 16 14 11 10 9 8 8 10 10 9 10 10 10 10 10 9 9 8 7 5 4 4
6 6 7 6 8 4 8 4 11 10 15 17 17 17 18 18 21 23 23 21 19 18 17 19 18 17 18 16 15 13 9 9 10 11 11 10 10 10 10 11 11 10 10 10 9 8 7 6 6
4 3 4 3 5 3 10 6 13 15 17 17 18 17 17 19 23 21 22 22 20 18 18 17 16 17 19 18 16 13 12 10 10 10 10 12 11 11 10 10 11 11 10 10 10 9 8 8 8
2 4 7 3 4 5 13 5 7 15 16 17 17 18 18 17 20 22 22 23 21 20 18 18 17 17 18 19 17 15 12 12 12 10 10 11 11 11 11 11 12 13 10 9 9 10 9 9 9
10 5 5 7 5 8 10 14 6 13 16 17 17 17 17 19 22 24 23 21 21 20 21 22 20 21 20 18 18 17 13 12 12 10 9 11 10 12 11 12 13 14 11 11 10 11 9 9 8
5 5 7 3 4 5 10 13 9 13 14 15 17 18 19 21 22 23 22 21 20 19 20 23 23 23 19 13 12 14 14 13 13 11 10 11 11 11 12 11 11 12 13 13 12 11 10 8 9
2 4 8 2 4 4 5 14 8 16 20 20 20 20 21 17 17 22 23 21 23 22 22 22 25 24 24 16 14 11 13 11 11 10 11 12 12 13 12 12 11 13 13 11 10 9 6 6 6
4 7 8 6 3 1 4 9 7 10 13 15 18 20 18 20 19 18 24 27 24 24 25 24 28 27 25 19 15 11 10 12 11 12 12 13 14 14 13 11 10 11 11 9 11 10 8 6 5
9 4 9 4 3 4 2 7 3 9 16 17 20 21 22 22 20 19 22 27 29 30 25 24 26 29 27 25 18 18 15 16 16 14 14 13 13 15 12 9 11 13 12 11 10 9 9 8 8
3 3 4 4 3 4 4 4 1 6 12 20 21 23 24 25 23 23 23 30 32 28 28 28 27 28 29 29 25 20 18 14 9 13 11 13 13 12 12 12 12 11 10 10 15 11 11 10 8
12 7 5 3 0 5 2 5 3 6 9 12 19 23 24 24 24 23 29 28 26 26 25 24 26 32 30 31 29 25 20 16 11 10 11 12 13 13 13 13 13 13 13 14 13 12 12 11 11
5 8 2 3 3 3 2 4 10 9 9 11 13 21 24 23 22 23 22 25 27 27 28 26 26 29 32 31 29 28 25 20 19 14 12 12 11 11 14 13 13 13 14 14 12 14 13 13 11
11 8 5 5 4 3 2 6 4 1 3 6 9 14 17 22 22 23 23 28 28 29 29 28 28 29 29 30 32 32 29 20 18 16 12 13 12 9 9 14 13 12 11 12 12 12 11 11 11
7 8 4 3 1 4 2 6 14 10 7 7 9 11 14 19 23 24 22 27 28 29 30 31 28 30 30 30 32 29 29 24 19 20 15 15 13 10 9 11 12 11 10 11 10 8 10 10 11
10 11 5 2 5 7 5 5 9 16 15 6 6 11 14 15 18 20 20 26 28 30 31 30 29 33 32 28 28 27 25 26 25 22 18 17 14 11 11 12 12 13 11 10 11 10 10 9 9
6 6 1 2 3 6 9 8 9 15 15 14 7 9 13 16 17 18 19 27 28 28 29 30 29 27 27 27 25 25 24 22 24 23 20 18 15 13 13 13 11 13 12 12 12 11 9 10 9
13 18 16 9 7 3 5 9 13 15 13 10 7 8 13 14 14 15 17 22 24 27 27 28 29 30 29 28 28 24 22 22 22 21 20 18 16 14 13 13 16 16 15 13 12 9 8 9 9
Wind_Direction
147 157 154 126 143 75 80 81 120 128 132 52 146 155 101 32 343 60 136 147 147 147 147 141 137 123 116 115 115 122 128 128 130 129 131 127 121 113 112 106 106 107 105 107 108 107 106 105 105
149 160 160 158 90 128 92 131 135 135 118 120 92 105 48 19 77 117 138 148 148 146 146 141 138 127 119 114 111 117 124 128 131 132 134 134 130 121 116 111 109 106 109 111 109 110 108 109 106
135 346 321 43 66 50 114 138 120 108 93 120 109 63 157 5 99 144 143 150 147 145 145 144 136 133 122 119 113 108 120 134 132 138 139 140 135 130 125 123 119 112 108 109 110 112 113 108 105
109 344 96 69 77 60 119 145 132 130 137 91 143 119 136 338 144 155 149 150 145 145 145 147 137 132 124 123 120 114 104 117 134 136 145 148 142 136 133 130 123 120 114 110 109 109 111 110 111
117 166 68 78 69 78 118 135 135 121 138 150 173 126 89 118 121 135 144 150 148 149 147 149 144 140 133 130 125 116 115 107 126 131 150 149 144 141 135 133 131 123 119 118 111 109 107 105 108
97 342 74 82 88 105 124 148 143 131 141 149 128 123 101 135 135 145 149 152 154 152 152 154 151 143 142 136 134 122 119 111 103 132 144 147 144 141 139 136 132 128 129 126 122 111 101 102 99
81 126 77 108 113 123 150 156 160 137 143 136 143 110 124 149 145 146 150 152 155 154 157 157 159 157 149 148 139 131 126 122 114 123 127 138 142 140 135 140 137 130 131 131 123 115 98 94 83
228 235 116 86 123 114 155 154 151 141 110 127 144 144 160 158 150 146 148 152 158 163 165 168 166 167 164 157 152 143 136 137 123 113 128 135 138 141 139 139 132 127 134 135 129 119 111 97 90
217 182 131 139 158 133 158 148 135 104 138 131 98 139 142 149 152 148 147 156 161 172 176 177 176 179 178 168 171 154 151 149 135 126 129 140 141 147 143 145 133 134 140 140 131 122 114 105 104
253 13 170 172 148 154 168 159 146 135 145 137 94 116 139 148 160 164 166 171 177 183 186 187 186 188 185 182 177 174 172 164 160 158 154 156 152 152 153 148 140 139 143 146 142 134 132 108 105
167 229 180 192 144 148 159 158 154 144 184 186 158 151 154 161 167 173 176 179 185 187 188 192 192 194 192 190 187 187 191 186 184 168 178 171 168 161 163 164 157 156 152 156 154 156 145 139 122
214 244 228 144 149 147 163 158 183 186 164 179 163 161 159 169 180 182 179 182 185 188 193 193 195 197 199 198 196 199 199 196 192 190 178 178 180 184 180 178 176 169 172 173 173 179 180 175 182
226 291 166 165 155 161 156 185 181 203 88 152 154 165 173 175 182 185 183 189 189 193 195 196 193 197 201 201 202 205 207 203 199 199 198 196 193 191 192 192 192 188 186 188 185 189 199 207 211
159 90 91 135 159 156 173 186 183 181 141 145 159 175 180 184 182 184 186 197 198 202 203 200 199 199 201 204 205 209 211 209 208 206 206 206 203 206 202 201 204 202 203 203 203 202 207 217 235
143 108 95 93 156 149 165 166 222 158 159 155 172 178 186 195 190 192 194 199 202 207 205 205 202 200 205 209 214 217 216 214 220 220 217 213 211 209 205 207 212 210 209 211 214 211 213 222 233
127 109 167 157 164 146 196 245 209 168 168 172 175 180 188 198 200 202 199 200 203 203 202 202 203 204 206 212 215 219 227 232 235 232 224 218 211 209 213 211 211 210 215 217 221 217 216 223 229
80 180 204 195 192 161 200 267 182 181 186 178 183 185 185 198 207 207 208 205 204 204 203 202 203 206 210 216 223 229 240 244 240 227 223 213 210 210 211 213 211 209 209 212 215 221 224 225 234
191 208 206 216 188 204 213 244 183 188 197 191 185 190 194 196 208 207 208 211 211 208 208 212 210 212 217 225 231 232 236 240 225 221 211 205 211 213 214 216 212 208 209 221 222 229 233 246 253
208 233 243 181 173 233 240 260 216 190 201 199 197 194 202 207 204 206 210 213 214 214 212 210 212 214 212 211 211 218 220 226 225 214 208 207 213 213 216 216 214 208 215 229 234 236 241 232 251
185 255 260 229 147 215 274 269 253 190 206 205 200 201 207 208 202 211 205 210 214 215 214 214 212 211 214 211 207 203 204 219 222 217 219 218 219 215 216 218 216 215 221 235 228 215 211 226 236
222 256 283 288 143 212 275 275 224 209 214 213 214 212 210 209 206 208 209 210 215 216 215 213 215 213 214 208 203 196 200 224 219 222 225 230 226 218 227 224 231 235 236 232 235 228 219 215 226
269 232 255 230 238 275 294 298 265 202 212 214 215 210 211 211 211 210 205 209 210 218 216 215 216 214 213 213 202 204 211 214 217 216 225 228 224 218 221 228 234 241 241 253 236 223 221 212 209
262 47 120 168 192 295 201 260 244 194 220 227 223 218 215 211 209 207 207 208 212 212 212 215 214 215 209 210 209 208 213 222 223 217 222 222 226 228 234 237 232 234 234 250 242 228 231 221 226
139 112 100 124 194 262 280 246 251 192 217 228 219 222 220 217 215 214 212 210 212 210 209 208 206 216 212 213 210 214 213 214 213 212 212 219 227 235 237 234 237 233 233 234 239 229 229 225 221
176 173 221 255 205 259 73 234 266 229 206 226 226 220 218 214 212 215 209 206 206 203 202 203 200 205 212 210 208 215 220 217 220 223 219 220 224 232 231 227 233 234 235 242 246 226 225 227 223
198 232 224 235 250 335 161 238 248 192 227 244 241 233 215 206 208 207 205 203 199 199 199 197 197 202 204 208 212 220 223 219 222 222 229 235 233 224 230 215 226 233 231 231 234 224 220 227 221
169 210 268 226 141 266 264 267 279 285 242 215 236 216 209 205 203 204 201 203 198 196 197 197 196 201 203 205 209 215 220 217 220 227 232 237 234 225 223 212 214 219 219 222 219 221 231 220 223
213 156 185 221 233 249 215 268 260 293 286 260 227 222 216 202 204 205 202 202 199 198 196 199 198 197 202 202 206 210 214 222 226 227 230 230 226 218 207 206 210 215 215 214 216 219 223 218 226
169 196 109 191 234 260 270 261 242 256 266 275 260 252 217 200 197 198 200 204 197 195 193 196 195 194 197 201 203 205 209 214 219 221 225 225 219 212 207 208 208 198 203 209 213 220 220 229 238
220 216 216 234 220 240 282 262 267 259 268 267 256 263 221 211 195 197 195 195 193 193 192 193 192 195 197 198 197 201 205 209 211 212 215 222 219 219 213 211 215 209 208 207 216 226 235 232 222